Wind_Speed
39 34 29 24 18 12 10 15 25 35 44 50 54 56 60 66 75 85 96 107 116 120 121 118 114 111 107 102 98 94 90 85 80 75 72 69 67 65
38 32 27 22 16 10 8 12 20 29 37 45 48 51 54 58 66 75 85 98 109 117 120 120 117 113 109 105 101 97 93 89 83 77 73 71 68 66
37 32 25 20 14 9 7 9 16 24 32 39 43 45 48 52 58 66 76 87 100 110 118 119 118 115 112 108 104 100 95 92 86 80 75 71 68 66
38 32 25 18 13 10 7 8 13 20 27 33 37 40 43 46 52 58 67 78 90 102 112 117 118 116 114 110 106 102 98 94 90 84 76 72 70 68
38 32 26 19 13 9 7 8 11 17 23 28 32 36 38 41 45 52 60 70 82 93 104 113 117 117 115 112 109 105 101 97 92 87 82 75 70 69
40 33 27 20 14 10 8 8 11 15 20 25 29 32 34 37 40 46 54 63 74 85 96 107 114 116 115 113 110 107 103 99 95 91 86 80 73 69
41 35 28 22 16 11 9 9 11 15 19 22 26 29 31 33 36 41 49 57 67 78 89 100 109 113 114 114 112 109 105 101 97 93 89 83 75 70
42 36 29 23 18 13 10 10 11 14 18 21 23 26 28 30 32 37 44 52 61 72 82 92 103 109 112 113 112 109 106 102 98 95 91 87 80 72
42 38 31 24 19 14 11 10 10 13 16 19 22 24 26 28 30 34 41 48 56 65 75 84 96 103 108 111 111 110 107 104 100 96 93 88 83 76
43 39 33 25 20 15 11 8 9 11 14 17 20 22 24 26 28 32 37 44 51 59 69 77 89 97 103 107 109 109 108 105 100 97 94 88 84 79
43 40 34 27 20 15 11 8 7 9 12 15 18 20 22 24 27 30 35 42 49 56 64 72 81 90 98 102 105 107 107 104 100 97 93 89 84 81
43 41 36 30 23 16 12 8 6 7 10 13 16 18 20 23 26 29 33 40 46 52 59 67 74 84 91 97 100 103 104 103 99 96 93 90 86 82
44 41 37 31 25 19 13 8 5 5 8 10 13 15 18 22 25 28 32 38 44 49 55 62 69 77 85 91 95 98 100 100 98 95 93 90 86 83
44 41 38 33 27 20 15 9 5 4 6 9 11 14 17 20 24 27 32 37 43 48 53 58 64 71 80 86 89 92 94 94 94 94 92 89 86 83
43 42 39 34 29 22 16 11 6 3 4 7 10 13 16 19 24 27 32 37 41 46 50 56 61 67 75 80 82 86 90 89 90 90 89 87 86 83
42 42 40 36 30 23 18 13 7 3 3 6 8 11 15 19 23 28 33 37 41 45 49 54 58 64 71 76 79 82 84 84 84 84 83 83 83 81
42 41 39 36 31 25 19 14 8 3 2 5 8 11 14 18 23 28 33 38 42 45 48 53 57 62 67 71 73 77 79 79 79 79 79 78 78 78
43 41 39 36 32 26 20 15 10 4 1 5 8 11 14 18 23 28 34 38 42 44 47 52 56 60 65 68 70 73 75 75 75 75 74 73 73 73
42 42 39 36 33 27 21 16 11 5 1 5 8 11 14 18 23 28 34 38 41 44 47 51 55 59 63 66 68 70 71 71 70 71 71 70 68 69
41 41 40 36 32 28 22 17 12 7 1 4 8 11 15 19 23 27 32 36 40 43 47 52 55 58 61 66 67 67 68 67 66 66 67 66 65 65
41 41 40 37 33 29 23 17 12 7 2 4 8 12 15 19 23 27 31 35 38 42 45 50 55 56 58 63 65 66 68 67 65 63 64 64 63 61
41 40 39 37 34 29 25 18 13 8 2 3 8 12 16 19 23 27 31 34 37 41 44 48 52 54 56 60 63 66 67 67 66 64 63 63 61 61
40 39 38 37 35 31 25 20 13 8 3 3 8 12 16 20 23 27 31 34 36 40 44 47 50 53 54 57 60 64 67 67 66 64 64 64 63 62
Wind_Direction
345 344 343 339 330 310 267 231 220 216 215 216 217 218 219 219 218 217 215 213 210 209 208 208 208 209 209 209 209 209 209 210 211 214 216 218 219 220
348 346 345 342 335 317 276 235 220 216 214 215 216 218 219 219 219 218 216 214 212 209 208 207 207 208 208 208 208 208 208 209 210 212 215 218 219 221
350 348 346 342 336 321 284 239 221 215 213 214 216 217 218 219 219 218 217 215 213 210 209 207 207 207 207 207 208 208 208 208 209 210 213 216 218 220
352 349 346 342 335 322 292 248 225 215 212 214 216 218 218 219 219 218 217 215 213 211 209 207 206 206 206 207 207 207 207 208 208 210 211 215 217 219
354 351 347 338 330 315 292 254 229 218 213 214 216 218 219 219 219 218 217 215 213 212 210 208 206 206 206 206 207 207 207 208 208 210 211 214 218 220
356 353 349 341 326 311 289 259 234 222 216 215 217 219 219 219 219 218 217 214 213 212 211 209 207 206 205 206 206 207 207 208 208 209 211 214 217 218
357 355 351 345 332 311 291 266 242 227 220 218 218 219 219 219 219 217 215 214 212 211 210 209 207 206 205 205 206 207 207 208 208 208 210 212 216 217
358 356 353 348 340 321 295 273 250 232 223 220 219 218 218 218 217 215 213 212 211 210 210 209 208 206 205 205 206 206 207 207 208 208 209 212 215 217
359 358 354 350 345 333 308 281 256 236 225 220 218 218 217 217 215 212 210 209 208 208 208 208 208 206 205 205 206 206 207 208 208 208 209 212 215 217
1 360 358 353 348 342 324 294 260 238 226 220 218 217 217 215 212 209 207 205 205 206 206 207 207 206 206 205 206 207 208 208 208 209 210 211 213 216
1 1 1 358 352 346 336 313 270 240 227 221 217 215 215 213 208 206 204 202 201 202 203 204 206 206 206 205 206 207 208 208 208 209 210 211 213 215
3 3 2 1 357 351 342 323 287 246 230 222 217 215 213 210 205 203 201 199 199 199 200 201 203 205 205 205 206 208 209 209 209 209 210 211 213 215
4 4 4 2 360 356 348 332 300 258 234 223 217 213 210 206 201 199 197 195 194 195 196 198 200 202 203 204 206 208 209 210 210 210 210 211 213 215
5 5 5 4 3 360 354 342 316 271 239 222 215 210 204 200 197 195 193 191 191 191 192 194 196 199 201 202 204 206 208 210 211 211 210 211 213 215
5 6 7 6 5 3 359 353 334 296 238 214 208 204 199 195 193 191 189 188 188 187 188 190 192 195 198 200 202 204 207 209 211 211 211 212 214 216
4 5 7 7 6 5 3 359 348 311 230 203 198 196 194 191 189 187 185 184 183 184 185 186 189 192 195 198 201 203 206 209 210 211 212 213 214 216
5 6 6 6 6 6 5 4 360 342 212 192 191 189 187 186 186 185 183 182 181 181 182 184 186 189 191 194 197 200 204 207 209 211 212 213 214 216
5 5 5 6 6 6 7 8 7 2 206 187 184 184 183 183 182 181 181 180 180 180 181 183 184 186 189 192 196 198 200 203 206 209 211 212 213 215
4 5 5 5 6 6 6 8 10 13 145 180 180 181 180 180 179 179 179 180 180 180 180 180 181 183 185 188 191 195 197 200 204 208 210 211 213 214
4 4 5 5 5 6 6 6 10 16 63 175 178 179 179 178 178 179 179 180 181 180 180 179 181 183 185 186 187 190 193 196 201 204 206 208 209 210
3 4 5 6 6 6 6 6 7 14 46 169 179 180 179 179 179 179 179 180 181 181 181 181 181 182 184 186 187 188 190 192 196 199 202 203 204 206
3 4 5 6 6 6 6 5 6 8 23 172 178 181 181 180 180 180 181 181 182 181 181 182 183 183 184 186 187 187 190 191 193 196 198 201 203 205
3 4 5 5 6 6 6 6 5 6 14 174 180 181 182 183 182 182 182 182 182 183 182 182 183 184 184 186 186 185 186 188 190 191 191 193 197 199
Height
5313 5303 5295 5288 5283 5281 5281 5282 5286 5293 5302 5312 5323 5333 5345 5357 5370 5385 5401 5420 5442 5465 5490 5514 5538 5561 5583 5604 5623 5642 5659 5676 5691 5704 5717 5728 5739 5749
5312 5303 5295 5289 5284 5282 5281 5282 5285 5290 5298 5306 5316 5326 5337 5348 5359 5372 5387 5404 5424 5447 5471 5495 5519 5542 5565 5587 5607 5626 5645 5662 5678 5692 5705 5717 5728 5739
5311 5303 5296 5290 5286 5284 5283 5283 5285 5289 5295 5303 5312 5321 5331 5340 5350 5362 5375 5390 5409 5429 5452 5476 5500 5524 5547 5570 5591 5611 5630 5648 5665 5680 5692 5705 5717 5729
5312 5303 5296 5291 5287 5285 5284 5284 5286 5289 5294 5301 5308 5316 5325 5333 5342 5352 5364 5378 5395 5414 5435 5459 5483 5507 5531 5554 5575 5596 5615 5634 5651 5667 5682 5695 5707 5717
5312 5304 5297 5292 5288 5286 5284 5285 5286 5289 5293 5298 5304 5311 5319 5327 5336 5345 5355 5368 5383 5401 5420 5443 5467 5491 5514 5538 5559 5581 5601 5622 5640 5655 5669 5682 5694 5705
5313 5304 5297 5292 5288 5286 5285 5284 5285 5288 5291 5296 5301 5307 5314 5322 5330 5338 5347 5358 5373 5389 5408 5429 5452 5475 5499 5523 5548 5568 5588 5606 5624 5642 5657 5671 5683 5694
5313 5304 5297 5292 5287 5285 5284 5283 5284 5286 5289 5293 5298 5304 5310 5317 5324 5331 5340 5350 5363 5378 5397 5417 5440 5465 5487 5509 5530 5552 5573 5592 5611 5629 5645 5660 5671 5683
5315 5306 5298 5292 5287 5284 5282 5282 5282 5284 5287 5290 5295 5300 5306 5312 5318 5325 5333 5343 5357 5372 5388 5407 5427 5450 5473 5496 5518 5539 5559 5579 5598 5616 5633 5648 5661 5673
5316 5307 5298 5292 5287 5283 5281 5280 5280 5281 5284 5287 5291 5296 5301 5307 5313 5319 5327 5336 5348 5362 5378 5398 5417 5439 5461 5483 5505 5525 5546 5566 5585 5604 5621 5636 5651 5663
5317 5308 5300 5292 5287 5283 5280 5279 5279 5280 5282 5285 5288 5293 5297 5302 5308 5314 5322 5331 5342 5355 5370 5389 5408 5429 5450 5472 5493 5514 5534 5554 5573 5592 5609 5625 5640 5653
5319 5309 5301 5293 5287 5283 5280 5278 5278 5278 5280 5282 5285 5289 5293 5298 5304 5310 5318 5326 5337 5350 5365 5382 5400 5420 5441 5463 5483 5502 5522 5542 5561 5580 5598 5614 5629 5642
5321 5311 5302 5294 5288 5283 5280 5278 5278 5278 5279 5281 5283 5287 5291 5295 5301 5307 5314 5323 5332 5346 5360 5376 5393 5412 5433 5453 5473 5492 5511 5530 5550 5569 5586 5602 5617 5630
5323 5313 5304 5296 5289 5284 5281 5279 5277 5277 5278 5280 5282 5285 5289 5293 5298 5305 5312 5320 5330 5342 5355 5370 5386 5404 5424 5445 5464 5483 5501 5520 5539 5557 5575 5591 5606 5621
5325 5316 5306 5298 5291 5285 5281 5279 5277 5277 5277 5279 5281 5284 5287 5291 5297 5303 5310 5318 5327 5339 5351 5366 5381 5398 5417 5437 5456 5475 5493 5510 5528 5547 5565 5581 5596 5610
5327 5317 5308 5300 5293 5287 5283 5280 5278 5277 5277 5278 5280 5283 5286 5290 5295 5301 5308 5317 5326 5337 5349 5363 5378 5393 5412 5431 5449 5467 5484 5501 5518 5537 5555 5571 5587 5601
5329 5320 5311 5303 5295 5289 5285 5281 5279 5278 5278 5279 5280 5283 5286 5290 5295 5301 5308 5316 5325 5336 5348 5360 5374 5390 5407 5424 5443 5460 5477 5494 5510 5528 5546 5563 5578 5592
5332 5322 5314 5306 5298 5292 5287 5283 5280 5279 5279 5280 5281 5284 5287 5291 5295 5301 5308 5316 5325 5335 5346 5359 5372 5386 5402 5419 5436 5453 5471 5488 5504 5520 5537 5554 5569 5584
5333 5325 5316 5308 5301 5294 5289 5285 5282 5280 5280 5281 5282 5285 5288 5292 5296 5302 5309 5317 5326 5335 5346 5357 5370 5384 5399 5415 5431 5448 5465 5482 5498 5513 5529 5545 5561 5575
5335 5327 5318 5310 5303 5296 5291 5287 5284 5282 5281 5282 5284 5286 5289 5293 5298 5304 5310 5318 5326 5335 5345 5356 5369 5382 5396 5412 5427 5443 5460 5475 5490 5505 5521 5538 5553 5568
5337 5329 5320 5312 5305 5298 5293 5289 5286 5284 5283 5283 5285 5287 5291 5295 5299 5305 5312 5319 5328 5336 5346 5356 5368 5380 5393 5408 5423 5438 5454 5469 5485 5499 5514 5529 5545 5560
5339 5330 5322 5314 5306 5300 5295 5290 5288 5286 5285 5285 5287 5289 5292 5296 5301 5307 5313 5321 5329 5337 5346 5356 5367 5379 5391 5404 5419 5433 5448 5463 5478 5493 5508 5523 5537 5550
5341 5332 5324 5316 5308 5302 5296 5292 5289 5287 5286 5287 5288 5290 5294 5298 5303 5309 5315 5322 5329 5338 5346 5356 5366 5377 5389 5402 5415 5429 5444 5458 5472 5486 5501 5516 5530 5543
5342 5333 5325 5318 5310 5303 5298 5293 5290 5288 5288 5288 5289 5292 5295 5299 5304 5310 5316 5323 5330 5338 5347 5356 5366 5376 5387 5399 5411 5424 5438 5452 5466 5479 5493 5506 5520 5533